Change the Weather History Date:

Monday, May 27, 2013

  Actual Average Record
Temperature  
Mean Temperature 83 °F 85 °F  
Max Temperature 94 °F 98 °F 111 °F (1951)
Min Temperature 71 °F 72 °F 48 °F (1917)
Degree Days  
Heating Degree Days 0 0  
Month to date heating degree days 0 0  
Since 1 July heating degree days 881 934  
Cooling Degree Days 18 20  
Month to date cooling degree days 505 447  
Year to date cooling degree days 1009 802  
Growing Degree Days 32 (Base 50)    
Moisture  
Dew Point 28 °F    
Average Humidity 16    
Maximum Humidity 22    
Minimum Humidity 9    
Precipitation  
Precipitation 0.00 in 0.00 in 0.05 in (1934)
Month to date precipitation 0.00 0.10  
Year to date precipitation 2.61 3.20  
Snow  
Snow 0.00 in - - ()
Month to date snowfall 0.0  
Year to date snowfall 0.0  
Since 1 July snowfall 0.0  
Snow Depth 0.00 in    
Sea Level Pressure  
Sea Level Pressure 29.73 in    
Wind  
Wind Speed 6 mph (ESE)    
Max Wind Speed 13 mph    
Max Gust Speed 17 mph    
Visibility 10 miles    
Events      
T = Trace of Precipitation, MM = Missing Value Source: NWS Daily Summary

Daily Weather History Graph

Daily Weather History Graph

Search for Another Location

Airport or City:

Trip Planner

Search our weather history database for the weather conditions in past years. The results will help you decide how hot, cold, wet, or windy it might be!

Date:

Astronomy

May. 27, 2013 Rise Set
Actual Time 5:20 AM MST 7:29 PM MST
Civil Twilight 4:52 AM MST 7:58 PM MST
Nautical Twilight 4:18 AM MST 8:32 PM MST
Astronomical Twilight 3:41 AM MST 9:09 PM MST
Moon 10:15 PM MST (5/27) 8:00 AM MST (5/27)
Length of Visible Light 15h 05m
Length of Day
14h 09m
Waning Gibbous, 90% of the Moon is Illuminated
May 27
Waning Gibbous
May 31
Last Quarter
Jun 8
New
Jun 16
First Quarter
Jun 23
Full

Hourly Weather History & Observations

Time (MST) Temp. Dew Point Humidity Pressure Visibility Wind Dir Wind Speed Gust Speed Precip Events Conditions
12:51 AM 82.9 °F 24.1 °F 12% 29.78 in 10.0 mi Calm Calm - N/A   Scattered Clouds
1:51 AM 78.1 °F 32.0 °F 19% 29.78 in 10.0 mi ENE 4.6 mph - N/A   Scattered Clouds
2:51 AM 75.9 °F 27.0 °F 16% 29.79 in 10.0 mi East 8.1 mph - N/A   Scattered Clouds
3:51 AM 73.9 °F 28.9 °F 19% 29.79 in 10.0 mi East 5.8 mph - N/A   Scattered Clouds
4:51 AM 73.0 °F 32.0 °F 22% 29.79 in 10.0 mi East 5.8 mph - N/A   Mostly Cloudy
5:51 AM 73.0 °F 26.1 °F 17% 29.79 in 10.0 mi East 5.8 mph - N/A   Mostly Cloudy
6:51 AM 73.0 °F 26.1 °F 17% 29.81 in 10.0 mi ENE 5.8 mph - N/A   Mostly Cloudy
7:51 AM 77.0 °F 27.0 °F 16% 29.81 in 10.0 mi East 5.8 mph - N/A   Mostly Cloudy
8:51 AM 79.0 °F 30.0 °F 17% 29.79 in 10.0 mi East 5.8 mph - N/A   Mostly Cloudy
9:51 AM 82.9 °F 27.0 °F 13% 29.78 in 10.0 mi East 5.8 mph - N/A   Mostly Cloudy
10:51 AM 86.0 °F 28.9 °F 13% 29.77 in 10.0 mi SE 6.9 mph - N/A   Mostly Cloudy
11:51 AM 88.0 °F 28.0 °F 12% 29.76 in 10.0 mi SE 4.6 mph - N/A   Overcast
12:51 PM 89.1 °F 26.1 °F 10% 29.75 in 10.0 mi South 4.6 mph - N/A   Mostly Cloudy
1:51 PM 91.9 °F 27.0 °F 10% 29.75 in 10.0 mi WSW 5.8 mph - N/A   Mostly Cloudy
2:51 PM 91.0 °F 28.0 °F 10% 29.72 in 10.0 mi Calm Calm - N/A   Scattered Clouds
3:51 PM 93.0 °F 30.0 °F 11% 29.70 in 10.0 mi North 10.4 mph - N/A   Partly Cloudy
4:51 PM 91.9 °F 32.0 °F 12% 29.67 in 10.0 mi Variable 3.5 mph - N/A   Partly Cloudy
5:51 PM 91.9 °F 30.0 °F 11% 29.65 in 10.0 mi WNW 8.1 mph - N/A   Clear
6:51 PM 91.9 °F 28.0 °F 10% 29.64 in 10.0 mi West 9.2 mph - N/A   Clear
7:51 PM 91.0 °F 26.1 °F 10% 29.65 in 10.0 mi NW 8.1 mph - N/A   Partly Cloudy
8:51 PM 89.1 °F 28.0 °F 11% 29.66 in 10.0 mi Calm Calm - N/A   Partly Cloudy
9:51 PM 88.0 °F 26.1 °F 11% 29.67 in 10.0 mi West 10.4 mph - N/A   Clear
10:51 PM 82.0 °F 28.9 °F 14% 29.67 in 10.0 mi SW 4.6 mph - N/A   Clear
11:51 PM 81.0 °F 28.0 °F 14% 29.66 in 10.0 mi WSW 3.5 mph - N/A   Clear